Location: Bauerbach
(50.4985°N, 10.3912°E)
Time: 20:40:35
(UTC+00:00)

Cosmos 1844 Rocket - Pass Details

Date: 13 January 2026
Orbit: 822 x 845 km, 71.0° (Epoch: 18 February)

Event Time Altitude Azimuth Distance (km) Brightness Sun altitude
Exits shadow 05:04:32 25° 327° (NNW) 1,659 3.8 -19.9°
Drops below altitude 10° 05:08:43 10° 14° (NNE) 2,474 5.2 -19.3°
Sets 05:11:38 0° 28° (NNE) 3,415 6.1 -18.8°
